Regional Weather Roundup
Issued by NWS

Home | Current Version | Previous Version | Graphics & Text | Print | Product List | Glossary On
Versions: 1 2 3 4 5 6 7 8 9 10 11 12 13 14 15 16 17 18 19 20 21 22 23 24 25 26 27 28 29 30 31 32 33 34 35 36 37 38 39 40 41 42 43 44 45 46 47 48 49 50
772
ASUS43 KFSD 232202
RWRSD

WEATHER ROUNDUP FOR SOUTH DAKOTA
NATIONAL WEATHER SERVICE SIOUX FALLS SD
400 PM CST TUE JAN 23 2018

NOTE: "FAIR" INDICATES FEW OR NO CLOUDS BELOW 12,000 FEET WITH NO
SIGNIFICANT WEATHER AND/OR OBSTRUCTIONS TO VISIBILITY.


SDZ001>005-009-010-012>017-232300-
NORTHWEST AND NORTH CENTRAL SOUTH DAKOTA

CITY           SKY/WX    TMP DP  RH WIND       PRES   REMARKS
BUFFALO          N/A     36  22  56 W15       30.07R
FAITH            N/A     39  24  55 NW20      30.12R
MOBRIDGE       MOSUNNY   40  25  55 NW10      30.08R
$$

SDZ012>016-024>037-041>051-057-063-072>074-232300-
SOUTHWEST AND SOUTH CENTRAL SOUTH DAKOTA

CITY           SKY/WX    TMP DP  RH WIND       PRES   REMARKS
RAPID CTY ARPT SUNNY     42  17  36 N20       30.14R
PIERRE         MOSUNNY   43  25  49 N16       30.11R
CUSTER         SUNNY     30   9  41 NW13G18   30.10R WCI  20
ELLSWORTH AFB  SUNNY     41  17  38 NW14      30.13R
PHILIP         SUNNY     43  25  49 NW16      30.14R
PINE RIDGE     SUNNY     32  23  69 W13       30.19R WCI  22
SPEARFISH        N/A     37  18  44 W14       30.14R
WINNER         FAIR      38  29  70 W16       30.12R
$$

SDZ004>011-016>023-039-040-232300-
NORTHEAST SOUTH DAKOTA

CITY           SKY/WX    TMP DP  RH WIND       PRES   REMARKS
ABERDEEN       MOSUNNY   35  23  61 W5        30.10R
WATERTOWN      CLOUDY    23  22  96 W9        30.07R FOG     WCI  13
BROOKINGS      CLOUDY    22  20  92 W10       30.10R WCI  11
SISSETON         N/A     25  20  81 NW7       30.10R WCI  17
$$

SDZ017-020-022-023-036>040-048>070-232300-
SOUTHEAST SOUTH DAKOTA

CITY           SKY/WX    TMP DP  RH WIND       PRES   REMARKS
SIOUX FALLS    CLOUDY    24  22  91 W7        30.12R WCI  16
HURON          CLOUDY    27  23  85 S3        30.12R
CHAMBERLAIN    PTSUNNY   37  32  81 W7        30.11S
MITCHELL       CLOUDY    31  25  78 W6        30.13R WCI  25
YANKTON        CLOUDY    30  24  78 CALM      30.14R
$$

ABBREVIATIONS USED IN REMARKS
   TC - TEMPERATURE IN CELSIUS
  WCI - WIND CHILL INDEX
   HX - HEAT INDEX
  VSB - VISIBILITY





USA.gov is the U.S. government's official web portal to all federal, state and local government web resources and services.